TimeCST,TemperatureF,Dew PointF,Humidity,Sea Level PressureIn,VisibilityMPH,Wind Direction,Wind SpeedMPH,Gust SpeedMPH,PrecipitationIn,Events,Conditions,WindDirDegrees,DateUTC
12:15 AM,14.0,8.6,79,30.32,10.0,Calm,Calm,-,N/A,,Overcast,0,2012-11-27 06:15:00
12:35 AM,15.8,8.6,73,30.32,10.0,SSW,5.8,-,N/A,,Overcast,210,2012-11-27 06:35:00
4:35 AM,17.6,8.6,68,30.26,10.0,SSW,3.5,-,N/A,,Overcast,200,2012-11-27 10:35:00
4:55 AM,17.6,8.6,68,30.26,10.0,SSW,3.5,-,N/A,,Overcast,200,2012-11-27 10:55:00
5:15 AM,17.6,10.4,73,30.25,10.0,SSW,4.6,-,N/A,,Overcast,200,2012-11-27 11:15:00
5:35 AM,17.6,10.4,73,30.24,10.0,South,5.8,-,N/A,,Mostly Cloudy,180,2012-11-27 11:35:00
5:55 AM,17.6,10.4,73,30.23,10.0,South,4.6,-,N/A,,Scattered Clouds,180,2012-11-27 11:55:00
6:15 AM,17.6,10.4,73,30.23,10.0,South,3.5,-,N/A,,Mostly Cloudy,180,2012-11-27 12:15:00
6:35 AM,17.6,10.4,73,30.23,10.0,South,3.5,-,N/A,,Scattered Clouds,170,2012-11-27 12:35:00
6:55 AM,17.6,10.4,73,30.22,10.0,Calm,Calm,-,N/A,,Scattered Clouds,0,2012-11-27 12:55:00
7:15 AM,17.6,10.4,73,30.21,10.0,South,4.6,-,N/A,,Clear,170,2012-11-27 13:15:00
7:35 AM,17.6,10.4,73,30.21,10.0,South,3.5,-,N/A,,Mostly Cloudy,180,2012-11-27 13:35:00
7:55 AM,17.6,10.4,73,30.22,10.0,SSW,4.6,-,N/A,,Scattered Clouds,200,2012-11-27 13:55:00
8:15 AM,17.6,10.4,73,30.22,10.0,South,4.6,-,N/A,,Scattered Clouds,190,2012-11-27 14:15:00
8:35 AM,19.4,10.4,68,30.21,10.0,South,6.9,-,N/A,,Scattered Clouds,170,2012-11-27 14:35:00
8:55 AM,19.4,12.2,74,30.21,10.0,South,4.6,-,N/A,,Scattered Clouds,170,2012-11-27 14:55:00
9:15 AM,21.2,12.2,68,30.21,10.0,South,5.8,-,N/A,,Clear,190,2012-11-27 15:15:00
9:35 AM,21.2,12.2,68,30.20,10.0,South,8.1,-,N/A,,Clear,170,2012-11-27 15:35:00
10:15 AM,21.2,12.2,68,30.19,10.0,South,5.8,-,N/A,,Clear,190,2012-11-27 16:15:00
10:35 AM,23.0,14.0,68,30.19,10.0,South,5.8,-,N/A,,Clear,180,2012-11-27 16:35:00
10:55 AM,24.8,14.0,64,30.18,10.0,South,9.2,-,N/A,,Clear,190,2012-11-27 16:55:00
11:15 AM,26.6,15.8,64,30.16,10.0,South,9.2,-,N/A,,Mostly Cloudy,170,2012-11-27 17:15:00
11:35 AM,26.6,15.8,64,30.15,10.0,SSE,8.1,-,N/A,,Overcast,160,2012-11-27 17:35:00
11:55 AM,26.6,15.8,64,30.15,10.0,South,4.6,-,N/A,,Overcast,190,2012-11-27 17:55:00
12:15 PM,28.4,15.8,59,30.14,10.0,South,3.5,-,N/A,,Overcast,190,2012-11-27 18:15:00
12:35 PM,28.4,17.6,64,30.13,10.0,SSE,8.1,-,N/A,,Overcast,160,2012-11-27 18:35:00
12:55 PM,28.4,17.6,64,30.12,10.0,SSE,9.2,-,N/A,,Overcast,160,2012-11-27 18:55:00
1:15 PM,28.4,17.6,64,30.11,10.0,South,6.9,-,N/A,,Overcast,170,2012-11-27 19:15:00
1:35 PM,30.2,17.6,60,30.11,10.0,South,5.8,-,N/A,,Overcast,190,2012-11-27 19:35:00
1:55 PM,30.2,17.6,60,30.10,10.0,South,3.5,-,N/A,,Overcast,190,2012-11-27 19:55:00
2:15 PM,32.0,17.6,55,30.09,10.0,SSW,5.8,-,N/A,,Overcast,210,2012-11-27 20:15:00
2:35 PM,32.0,19.4,60,30.09,10.0,South,4.6,-,N/A,,Overcast,190,2012-11-27 20:35:00
3:15 PM,32.0,19.4,60,30.09,5.0,SSW,8.1,-,N/A,Snow,Light Snow,200,2012-11-27 21:15:00
3:35 PM,32.0,19.4,60,30.09,10.0,SW,3.5,-,N/A,Snow,Light Snow,220,2012-11-27 21:35:00
4:15 PM,32.0,19.4,60,30.10,10.0,Calm,Calm,-,N/A,,Overcast,0,2012-11-27 22:15:00
4:35 PM,30.2,19.4,64,30.10,10.0,Calm,Calm,-,N/A,,Overcast,0,2012-11-27 22:35:00
4:55 PM,30.2,21.2,69,30.10,10.0,Calm,Calm,-,N/A,,Overcast,0,2012-11-27 22:55:00
5:15 PM,30.2,21.2,69,30.11,10.0,Calm,Calm,-,N/A,,Overcast,0,2012-11-27 23:15:00
5:35 PM,30.2,21.2,69,30.11,10.0,Calm,Calm,-,N/A,,Overcast,0,2012-11-27 23:35:00
5:55 PM,30.2,21.2,69,30.11,10.0,Calm,Calm,-,N/A,,Overcast,0,2012-11-27 23:55:00
6:15 PM,30.2,21.2,69,30.11,10.0,Calm,Calm,-,N/A,,Overcast,0,2012-11-28 00:15:00
6:35 PM,30.2,21.2,69,30.12,10.0,Calm,Calm,-,N/A,,Overcast,0,2012-11-28 00:35:00
6:55 PM,30.2,21.2,69,30.12,10.0,Calm,Calm,-,N/A,,Overcast,0,2012-11-28 00:55:00
7:15 PM,30.2,21.2,69,30.13,10.0,Calm,Calm,-,N/A,,Overcast,0,2012-11-28 01:15:00
7:35 PM,30.2,23.0,75,30.13,10.0,West,3.5,-,N/A,,Overcast,280,2012-11-28 01:35:00
7:55 PM,30.2,21.2,69,30.14,10.0,WNW,3.5,-,N/A,,Overcast,290,2012-11-28 01:55:00
8:15 PM,30.2,23.0,75,30.14,10.0,Calm,Calm,-,N/A,,Overcast,0,2012-11-28 02:15:00
8:35 PM,30.2,23.0,75,30.15,10.0,WNW,3.5,-,N/A,,Overcast,290,2012-11-28 02:35:00
8:55 PM,30.2,23.0,75,30.16,10.0,WNW,3.5,-,N/A,,Overcast,300,2012-11-28 02:55:00
9:15 PM,28.4,21.2,74,30.16,10.0,Calm,Calm,-,N/A,,Scattered Clouds,0,2012-11-28 03:15:00
9:35 PM,28.4,21.2,74,30.16,10.0,Calm,Calm,-,N/A,,Clear,0,2012-11-28 03:35:00
9:55 PM,24.8,21.2,86,30.17,10.0,Calm,Calm,-,N/A,,Mostly Cloudy,0,2012-11-28 03:55:00
10:15 PM,26.6,21.2,80,30.17,10.0,Calm,Calm,-,N/A,,Scattered Clouds,0,2012-11-28 04:15:00
10:35 PM,24.8,19.4,80,30.18,10.0,Calm,Calm,-,N/A,,Scattered Clouds,0,2012-11-28 04:35:00
10:55 PM,23.0,21.2,93,30.18,10.0,Calm,Calm,-,N/A,,Mostly Cloudy,0,2012-11-28 04:55:00
11:15 PM,23.0,21.2,93,30.18,10.0,Calm,Calm,-,N/A,,Overcast,0,2012-11-28 05:15:00
11:35 PM,24.8,21.2,86,30.19,10.0,Calm,Calm,-,N/A,,Overcast,0,2012-11-28 05:35:00
11:55 PM,26.6,21.2,80,30.20,10.0,Calm,Calm,-,N/A,,Overcast,0,2012-11-28 05:55:00